Погода в Тексфорсе

Швеция     59°30′32″N   11°50′32″E
темп.,
°C
ветер,
м/с
пор.,
м/с
влажн.,
%
обл.,
%
осадки,
мм/ч
давл.,
гПа
погр.,
м
16 июня, ср
ср1623:00+9ю278511 0.0 1015139
02:00+8ю27975 0.0 1015148
05:00+8ю3109658 0.0 1014288
08:00+12ююз396871 0.0 1014556
11:00+17юз583963 0.0 10151028
14:00+17юз6950100 0.0 10151048
17:00+16юз6948100 0.0 1016965
20:00+14ююз41161100 0.0 1016712
17 июня, чт
чт1723:00+12ююз41173100 0.0 1016494
02:00+11ю3108671 0.0 1016331
05:00+10ю2109712 0.0 1016249
08:00+16ююз37684 0.0 1016626
11:00+21юз46471 0.0 10161369
14:00+23ююз47473 0.0 10151396
17:00+20ю385793 0.0 1014648
20:00+20ю41273100 0.1 1013972
18 июня, пт
пт1823:00+17ююв3129297 0.4 1012554
02:00+17ю4139766 0.7 1011633
05:00+17ююз3999100 0.3 1010508
08:00+16юз3896100 0.3 1011496
11:00+15ююз3693100 0.1 1013428
14:00+20юз3668100 0.1 1013653
17:00+18юз3970100 0.0 1013361
20:00+16ююз168296 0.0 1013264
19 июня, сб
сб1923:00+15ююз1186100 0.0 101427
02:00+14вюв1191100 0.0 101411
05:00+15всв1390100 0.1 1013110
08:00+15в3998100 1.4 1011490
11:00+18юв3796100 1.1 1010563
14:00+19юз3796100 1.9 1009515
17:00+16з3895100 0.4 1009543
20:00+11ссз259367 0.4 1011245
20 июня, вс
вс2023:00+9сз269896 0.0 1013206
02:00+8сз25975 0.0 1013123
05:00+7зсз11961 0.0 101521
08:00+13с356811 0.0 1015498
11:00+18ссв23500 0.0 10141052
14:00+23юв12395 0.0 10141732
17:00+23ю123599 0.0 10131880
20:00+21ююз245468 0.0 1012238